Location: Keski-Palokka
(62.2833°N, 25.7167°E)
Time: 17:46:20
(UTC+00:00)

Daily predictions for brighter satellites

Satellite Brightness Start Highest point End
(mag) Time Altitude Azimuth Time Altitude Azimuth Time Altitude Azimuth
Cosmos 2082 3.8 14:57:32 10° NW 15:03:14 62° NE 15:08:57 10° ESE
NOAA 6 4.4 14:59:08 10° SSE 15:04:20 73° WSW 15:09:34 10° NNW
NOSS 3-4 (A) 3.7 14:57:58 10° WNW 15:04:25 85° NNE 15:11:38 10° E
NOSS 3-4 (C) 3.7 14:58:04 10° WNW 15:04:31 85° N 15:11:44 10° E
Cosmos 1624 Rocket 4.1 14:59:30 10° SSW 15:04:50 83° ESE 15:10:12 10° NE
ATLAS 5 CENTAUR R/B 2.0 15:03:21 10° SW 15:07:39 59° SSE 15:12:42 10° ENE
Cosmos 1726 2.1 15:04:04 10° SSW 15:07:48 85° ESE 15:11:34 10° NNE
COSMO-SKYMED 1 4.2 15:05:38 10° NE 15:08:15 15° E 15:10:51 10° ESE
H-2A R/B 2.5 15:05:10 10° NNE 15:09:10 39° E 15:13:04 10° S
Cosmos 2278 Rocket 3.1 15:03:56 10° W 15:09:18 42° NNW 15:14:42 10° NE
YAOGAN 6 2.7 15:05:55 10° SSE 15:09:37 86° WSW 15:13:22 10° NNW
Feng Yun 1-1 Rocket 4.4 15:06:40 10° SE 15:12:31 64° ENE 15:18:23 10° NNW
Cosmos 1328 4.0 15:10:37 10° NNW 15:14:35 76° W 15:18:32 10° S
Ariane Rocket 4.4 15:11:29 10° E 15:15:06 20° NE 15:18:43 10° N
Meteor 2-21 Rocket 4.5 15:08:55 10° NNW 15:15:09 73° ENE 15:21:18 10° SSE
Cosmos 1825 Rocket 3.6 15:11:48 10° NNW 15:16:19 82° ENE 15:20:45 10° SSE
NOSS 2-1 (C) 3.7 15:15:09 10° SW 15:18:25 43° SE 15:22:16 10° ENE
H-2A R/B 2.9 15:14:41 10° ESE 15:19:30 33° NE 15:24:19 10° NNW
Cosmos 1844 Rocket 3.6 15:14:37 10° WNW 15:19:48 35° N 15:25:00 10° ENE
Landsat 5 3.4 15:16:59 10° NNE 15:20:47 54° ESE 15:24:38 10° S
Cosmos 1656 Rocket 3.8 15:15:49 10° SSW 15:21:22 66° SE 15:27:02 10° NE
ARGOS 4.0 15:16:45 10° ESE 15:21:23 30° NE 15:26:01 10° NNW
CZ-4C R/B 2.9 15:19:48 10° NNE 15:23:02 59° ESE 15:26:19 10° S
NOSS 2-1 (D) 3.6 15:20:21 10° SW 15:23:38 46° SE 15:27:29 10° ENE
RESURS DK-1 3.7 15:20:01 10° WNW 15:23:42 29° N 15:27:24 10° ENE
CZ-4B R/B 3.6 15:19:43 10° SSE 15:25:16 72° WSW 15:30:46 10° NNW
ATLAS 2AS CENTAUR R/B 3.0 15:18:32 10° WNW 15:26:27 85° NNE 15:33:51 10° ESE
GEOS 3 Rocket 3.8 15:21:40 10° ESE 15:27:05 87° SSW 15:32:33 10° WNW
USA 215 3.7 15:20:46 10° E 15:27:14 57° S 15:33:41 10° WSW
Cosmos 1758 4.1 15:23:25 10° SSW 15:27:28 56° WNW 15:31:32 10° N
Cosmos 2227 Rocket 2.4 15:22:12 10° NW 15:27:54 82° SW 15:33:35 10° SE
SeaSat 1 2.7 15:25:19 10° ESE 15:30:05 51° NNE 15:34:53 10° NW
Cosmos 2279 Rocket 4.2 15:23:58 10° SSW 15:30:14 83° WNW 15:36:31 10° NNE
Cosmos 1408 3.4 15:27:47 10° N 15:31:04 30° ENE 15:34:20 10° SE
YAOGAN 1 3.1 15:27:09 10° SE 15:31:08 37° ENE 15:35:09 10° N
Cosmos 371 Rocket 3.5 15:26:19 10° SW 15:31:10 77° NW 15:36:06 10° NE
Cosmos 1939 Rocket 2.9 15:27:34 10° SE 15:31:25 53° ENE 15:35:14 10° N
SL-16 R/B 3.9 15:26:16 10° NNE 15:31:50 35° NW 15:37:23 10° WSW
Cosmos 2263 Rocket 2.6 15:26:24 10° NW 15:31:56 48° NNE 15:37:27 10° ESE
Okean O Rocket 2.1 15:29:02 10° S 15:33:23 67° WSW 15:37:44 10° NNW
Meteor 1-16 Rocket 4.1 15:29:04 10° S 15:34:36 75° ESE 15:40:00 10° NNE
Resurs 01 Rocket 3.6 15:33:10 10° NE 15:34:46 12° NNE 15:36:22 10° N
Aureole 3 Rocket 4.3 15:31:16 10° SE 15:35:33 33° E 15:41:16 10° NNE
Cosmos 1758 Rocket 4.2 15:31:09 10° NNW 15:35:33 61° W 15:39:53 10° S
Cosmos 1892 3.0 15:32:36 10° N 15:36:22 44° ENE 15:40:07 10° SE
Cosmos 1544 Rocket 4.2 15:33:54 10° SSW 15:38:15 60° WNW 15:42:41 10° NNE
Cosmos 968 Rocket 3.5 15:34:01 10° NW 15:39:19 88° NE 15:44:32 10° SE
Cosmos 1726 Rocket 4.0 15:36:09 10° SSE 15:40:12 38° E 15:44:18 10° NNE
CSL-04 Rocket 4.1 15:35:30 10° ESE 15:40:41 43° NE 15:45:50 10° NNW
Cosmos 1908 3.2 15:37:35 10° S 15:41:27 78° ESE 15:45:22 10° NNE
Helios 1A Rocket 3.0 15:39:19 10° SE 15:43:21 55° ENE 15:47:22 10° NNW
Cosmos 2228 3.2 15:39:23 10° S 15:43:30 48° E 15:47:39 10° NNE
CZ-4 R/B 4.5 15:39:26 10° SE 15:43:32 59° ENE 15:47:40 10° NNW
Cosmos 2297 4.4 15:38:27 10° WSW 15:43:57 50° NNW 15:49:28 10° NE
NOSS 7 (E) 4.2 15:41:54 10° W 15:44:56 72° N 15:47:30 16° E
IRS-1C Rocket 4.1 15:40:05 10° SSE 15:45:22 78° ENE 15:50:41 10° NNW
Cosmos 1400 Rocket 3.8 15:43:05 10° SSE 15:46:34 27° E 15:50:02 10° NE
Lacrosse 5 2.5 15:43:54 10° WSW 15:48:44 46° S 15:53:02 13° ESE
Cosmos 2151 4.0 15:45:11 10° N 15:48:44 25° NE 15:51:49 12° ESE
Cosmos 1777 Rocket 4.4 15:44:19 10° NW 15:49:21 45° NE 15:54:16 11° ESE
ADEOS Rocket 3.1 15:43:33 10° NNE 15:49:45 80° ESE 15:56:39 10° SSW
Cosmos 1420 Rocket 4.1 15:45:01 10° SW 15:50:18 83° NW 15:55:34 10° NE
Timation 1 Rocket 4.4 15:44:31 10° NW 15:50:35 81° NE 15:56:39 10° SE
Cosmos 1818 3.7 15:46:07 10° SW 15:51:32 67° SE 15:56:19 14° ENE
Cosmos 332 Rocket 4.1 15:46:54 10° SW 15:51:51 74° NW 15:56:48 10° NE
Cosmos 2058 3.1 15:48:10 10° N 15:52:11 48° ENE 15:56:09 10° SE
Cosmos 1697 Rocket 4.2 15:49:15 10° SE 15:52:13 15° E 15:52:58 14° E
Cosmos 1633 4.4 15:51:40 10° NNE 15:53:34 14° NE 15:53:46 14° NE
Cosmos 1825 2.8 15:51:25 10° N 15:54:57 35° ENE 15:58:28 10° SE
Cosmos 1300 2.9 15:51:49 10° S 15:55:28 45° E 15:59:10 10° NNE
Cosmos 1606 Rocket 3.6 15:51:49 10° S 15:56:08 58° E 16:00:30 10° NNE
SAR-Lupe-4 4.3 15:53:08 10° NNE 15:56:23 31° E 15:59:36 10° SSE
SMAP 4.2 15:51:54 10° S 15:56:25 48° W 16:00:57 10° NNW
SL-08 R/B 4.4 15:50:12 10° NNW 15:56:26 73° ENE 16:02:34 10° SSE
Cosmos 2263 4.4 15:50:42 10° SW 15:56:30 80° NW 16:02:15 10° NE
EP 3 3.4 15:54:33 10° WSW 15:56:31 90° S 15:57:23 29° ENE
SKYMED 2 4.3 15:52:59 10° NNE 15:56:54 31° E 16:00:49 10° SSE
CZ-4 R/B 1.3 15:53:32 10° SE 15:57:19 56° ENE 16:01:07 10° NNW
HJ-1C 4.2 15:55:13 12° ESE 15:57:58 30° ENE 16:00:59 10° N
ERS-2 2.3 15:56:39 10° NNE 16:00:14 49° ESE 16:03:48 10° S
Cosmos 1745 Rocket 4.0 15:54:51 10° NNW 16:01:06 63° ENE 16:07:24 10° SSE
Cosmos 1110 Rocket 4.2 15:56:08 10° S 16:01:12 52° ESE 16:06:16 10° NE
ERBS 3.5 15:59:19 10° WSW 16:02:22 33° S 16:04:32 16° ESE
Cosmos 1346 Rocket 2.7 15:58:41 10° NNW 16:02:41 64° ENE 16:06:39 10° SSE
Cosmos 1356 Rocket 3.9 15:58:29 10° SSW 16:02:47 66° WNW 16:07:06 10° NNE
Cosmos 1486 Rocket 4.4 15:58:41 10° NW 16:04:01 69° WSW 16:09:18 10° SSE
SL-4 R/B 4.0 16:02:07 10° SW 16:04:19 16° S 16:06:34 10° SE
CZ-2D R/B 3.1 16:02:19 10° SSE 16:06:08 79° ENE 16:09:58 10° NNW
Cosmos 1340 2.9 16:03:13 10° NNW 16:07:01 73° WSW 16:10:47 10° S
Cosmos 2297 Rocket 3.2 16:01:59 10° NW 16:07:28 49° WSW 16:12:52 10° SSE
Okean-O 2.5 16:04:05 10° SSE 16:08:31 77° ENE 16:12:59 10° NNW
In-Cosmos 22 Rocket 4.2 16:04:05 10° NNW 16:09:27 84° WSW 16:14:53 10° SSE
Cosmos 2369 Rocket 2.7 16:06:57 10° WSW 16:12:37 61° NW 16:18:19 10° NE
Cosmos 1953 3.7 16:09:41 10° SW 16:13:28 41° WNW 16:17:17 10° N
Cosmos 1503 Rocket 4.0 16:08:50 10° NW 16:14:05 85° SW 16:19:21 10° SSE
SAR-Lupe-1 4.5 16:10:55 10° NNE 16:14:21 40° E 16:17:47 10° S
NOSS 2-1 (E) 3.2 16:13:14 10° WSW 16:16:46 74° SSE 16:19:21 22° ENE
Cosmos 1689 Rocket 2.7 16:17:12 31° E 16:17:25 31° E 16:20:02 10° SSE
Terra 4.0 16:17:03 10° NNE 16:17:48 10° NNE 16:18:35 10° NNE
Cosmos 1315 Rocket 4.1 16:15:49 10° SE 16:24:39 - NNE 16:18:11 22° ESE
CZ-4B R/B 1.2 16:15:51 10° NNE 16:19:09 70° ESE 16:22:20 10° S
SL-08 RB Rocket 4.2 16:16:14 17° ESE 16:19:18 38° ENE 16:23:30 10° N
CSL-04 Debris 4.1 16:16:46 10° SE 16:22:12 71° ENE 16:27:42 10° NNW
Cosmos 2227 4.2 16:17:09 10° NW 16:22:48 69° NE 16:27:11 17° ESE
Aureole 3 2.8 16:19:57 10° S 16:22:49 45° E 16:25:43 11° NNE
Cosmos 2056 Rocket 4.4 16:17:59 10° WSW 16:22:55 45° NW 16:27:52 10° NE
Genesis I 3.4 16:20:29 10° W 16:24:20 63° N 16:26:21 26° ENE
Cosmos 1354 Rocket 4.1 16:20:56 10° NW 16:26:13 80° WSW 16:31:29 10° SSE
CZ-4C R/B 2.7 16:20:01 10° WNW 16:26:18 89° NNE 16:31:48 20° ESE
COSMOS 2455 3.2 16:22:56 10° WNW 16:28:53 55° N 16:32:43 22° ENE
Cosmos 1709 Rocket 4.0 16:24:24 10° NNW 16:30:44 62° ENE 16:37:05 10° SSE
Cosmos 304 Rocket 4.4 16:26:36 10° SW 16:31:19 55° NW 16:36:04 10° NNE
CZ-2C R/B 3.2 16:25:50 10° SSE 16:31:35 88° ENE 16:37:07 10° NNW
Cosmos 2058 Rocket 3.1 16:27:13 10° S 16:31:41 65° E 16:36:11 10° NNE
NOSS 7 (H) 4.2 16:30:38 10° WNW 16:33:41 85° NNE 16:35:00 36° E
Cosmos 1441 Rocket 3.8 16:34:22 10° N 16:37:59 36° ENE 16:38:32 34° E
Cosmos 1452 Rocket 3.9 16:33:37 10° SW 16:38:52 64° NW 16:44:10 10° NE
SJ 16-02 2.1 16:36:38 10° NNW 16:40:45 35° NE 16:41:55 30° ENE
Cosmos 1076 Rocket 3.4 16:36:29 10° NNW 16:40:46 86° ENE 16:45:02 10° SSE
Meteor 2-3 Rocket 4.0 16:35:32 10° NNW 16:41:05 49° ENE 16:44:48 21° SE
Cosmos 1943 Rocket 3.1 16:37:29 10° W 16:42:45 42° NNW 16:47:06 15° NE
Meteor 2-10 Rocket 3.7 16:38:03 10° SSE 16:43:01 46° E 16:47:51 10° NNE
Cosmos 1455 3.2 16:39:55 10° SSE 16:47:45 - NNE 16:42:12 28° SE
Cosmos 2074 Rocket 4.4 16:38:37 10° N 16:44:30 41° ENE 16:47:30 25° ESE
H-2A R/B 3.1 16:41:13 10° NNE 16:45:15 44° WNW 16:49:11 10° SW
COSMO-SKYMED 1 2.5 16:40:53 10° NNE 16:45:15 68° ESE 16:49:36 10° S
ATLAS 5 CENTAUR R/B 1.8 16:47:37 10° W 16:52:14 81° N 16:54:45 32° ENE
Ariane Rocket 3.1 16:50:34 26° SE 16:53:13 54° ENE 16:58:12 10° NNW
USA-17 4.2 16:50:29 10° WNW 16:53:36 85° SSW 16:54:15 55° ESE
Cosmos 2278 Rocket 3.2 16:49:26 10° WNW 16:54:39 35° N 16:57:28 22° NE
NOSS 3-4 (A) 4.1 16:48:48 10° WNW 16:55:20 62° SW 17:01:08 17° SE
NOSS 3-4 (C) 4.1 16:48:55 10° WNW 16:55:26 62° SW 17:01:12 17° SE
Cosmos 44 3.5 16:51:07 10° SSW 16:55:37 49° SE 16:57:04 37° E
CRYOSAT 2 4.3 16:52:30 10° N 16:57:22 63° E 17:02:12 10° S
CZ-2C R/B 4.1 16:53:04 10° NNE 16:55:31 21° NE 16:55:31 21° NE
H-2A R/B 2.2 16:53:04 10° SSE 16:58:33 82° WSW 17:04:03 10° NNW
S3M 3.9 16:54:32 10° S 17:00:36 65° E 17:06:46 10° NNE
ARGOS 3.1 16:55:43 10° SSE 17:01:11 88° ENE 17:06:40 10° NNW
Cosmos 2315 Rocket 4.2 16:56:29 10° SSE 17:02:15 43° E 17:08:03 10° NNE
RESURS DK-1 3.2 16:58:47 10° NW 17:02:40 35° NNE 17:03:27 32° NE
SJ-11-01 4.4 16:58:15 10° SSE 17:02:56 74° WSW 17:07:39 10° NNW
GENESIS II 4.3 16:59:49 10° SW 17:03:48 57° SE 17:04:18 52° ESE
Cosmos 1844 Rocket 3.0 16:59:16 10° NW 17:04:49 50° NNE 17:06:49 35° E
Cosmos 1656 Rocket 4.4 16:59:43 10° WSW 17:05:14 52° NNW 17:09:40 16° NE
Cosmos 1656 3.8 17:00:41 10° SSW 17:06:07 53° ESE 17:08:58 28° ENE
Cosmos 1408 3.7 17:02:43 10° NNW 17:06:14 45° W 17:09:45 10° S
YAOGAN 1 3.4 17:02:58 10° S 17:07:12 50° W 17:11:27 10° NNW
Okean 3 Rocket 3.5 17:03:12 10° N 17:07:35 58° ENE 17:08:30 47° ESE
SeaSat 1 2.9 17:03:39 16° SSE 17:07:37 62° SW 17:12:33 10° NW
Cosmos 1766 Rocket 3.6 17:03:27 10° N 17:07:54 56° ENE 17:08:48 47° ESE
Meteor 2-8 Rocket 4.5 17:02:11 10° SSW 17:08:20 85° WNW 17:14:33 10° NNE
NOSS 2-1 (C) 3.3 17:05:04 10° W 17:08:41 82° N 17:09:42 50° ENE
Cosmos 2369 4.3 17:04:49 10° S 17:09:18 34° SE 17:09:18 34° SE
Resurs 01 Rocket 2.5 17:10:29 31° NE 17:10:29 31° NE 17:14:04 10° N
USA 215 3.7 17:07:14 25° SE 17:10:57 51° SSW 17:17:20 10° W
Cosmos 1417 Rocket 4.4 17:05:01 10° S 17:11:19 84° ESE 17:17:44 10° NNE
Cosmos 2227 Rocket 4.3 17:06:42 10° NW 17:11:20 27° WSW 17:15:57 10° SSW
Cosmos 1331 Rocket 4.1 17:08:19 10° SW 17:13:29 72° NW 17:18:08 13° NE
NOSS 2-1 (D) 3.3 17:10:19 10° W 17:13:56 80° N 17:14:48 54° ENE
Cosmos 1812 Rocket 3.5 17:10:01 10° S 17:14:18 56° E 17:18:35 10° NNE
MOS 1 Rocket 3.3 17:10:19 10° NNE 17:14:49 55° E 17:19:35 10° S
SJ-6B 2.9 17:15:08 58° E 17:15:29 61° ENE 17:19:36 10° NNW
ARIANE 5 R/B 4.0 17:16:45 25° NE 17:16:45 25° NE 17:19:51 10° N
Cosmos 2263 Rocket 2.3 17:10:34 10° NW 17:16:17 77° SW 17:19:27 28° SSE
OBJECT-B 2.7 17:18:08 22° N 17:18:08 22° N 17:19:35 10° N
ATLAS 2AS CENTAUR R/B 3.2 17:09:47 10° WNW 17:17:23 62° SW 17:22:01 23° SSE
Cosmos 1844 4.0 17:14:01 10° NW 17:19:28 52° NNE 17:20:57 41° ENE
Cosmos 1937 Rocket 3.9 17:15:17 10° NW 17:20:14 43° NE 17:21:02 40° ENE
CSL-04 Rocket 4.2 17:15:27 10° S 17:20:56 60° WSW 17:26:24 10° NNW
Aureole 3 Rocket 4.1 17:17:44 10° SSW 17:22:29 67° WNW 17:29:19 10° NNE
Cosmos 1400 Rocket 3.4 17:18:46 10° SSW 17:22:49 58° WNW 17:26:51 10° NNE
Cosmos 292 Rocket 4.0 17:20:57 10° SW 17:25:47 70° NW 17:29:15 19° NNE
Cosmos 2151 3.1 17:22:15 10° NNW 17:26:30 73° WSW 17:28:26 31° S
Cosmos 2154 Rocket 4.2 17:20:45 10° NNW 17:26:47 49° ENE 17:28:03 43° E
Cosmos 1633 3.5 17:25:35 10° N 17:27:53 36° N 17:27:53 36° N
PSLV R/B 4.2 17:25:19 10° NNE 17:29:32 69° WNW 17:33:41 10° SSW
Cosmos 1553 Rocket 4.2 17:23:23 10° SSW 17:29:43 75° WNW 17:35:59 10° NNE
Meteor 2-15 Rocket 4.3 17:23:47 10° S 17:29:56 82° ESE 17:36:07 10° NNE
Cosmos 1825 3.5 17:26:57 10° NNW 17:30:32 40° W 17:34:06 10° SSW
Lacrosse 5 2.6 17:26:26 10° W 17:31:11 42° SSW 17:32:14 37° SSE
Cosmos 1777 Rocket 4.4 17:26:31 10° NW 17:31:40 62° WSW 17:34:32 26° S
CZ-4 R/B 3.4 17:29:19 10° SSW 17:32:38 27° W 17:35:59 10° NW
SKYMED 2 4.2 17:29:04 10° NNE 17:33:21 57° WNW 17:37:37 10° SW
ERS-2 4.0 17:30:26 10° N 17:33:41 30° NW 17:36:55 10° WSW
EO 1 Delta rocket 3.9 17:28:34 10° NNE 17:33:55 61° E 17:34:35 55° SE
Cosmos 1697 Rocket 2.8 17:29:34 10° SSW 17:34:45 50° SE 17:34:45 50° SE
ADEOS Rocket 4.5 17:29:27 10° NNE 17:35:00 38° NW 17:41:05 10° WSW
Cosmos 1818 3.7 17:29:45 10° W 17:35:14 71° NNW 17:36:56 44° ENE
ERBS 4.2 17:35:15 10° WSW 17:37:25 24° SW 17:37:25 24° SW
ERS-1 Rocket 4.3 17:38:49 26° NE 17:38:49 26° NE 17:42:27 10° N
Meteor 2-1 Rocket 4.1 17:33:29 10° SSW 17:39:01 89° ESE 17:44:39 10° NNE
SL-4 R/B 4.5 17:41:59 10° SW 17:42:47 11° SSW 17:42:47 11° SSW
Cosmos 1408 Rocket 3.7 17:40:20 10° NNW 17:44:18 61° NNE 17:44:18 61° NNE
Cosmos 1302 Rocket 4.2 17:40:01 10° SW 17:45:19 74° NW 17:49:01 20° NNE
Cosmos 1689 Rocket 4.2 17:49:15 26° W 17:49:15 26° W 17:51:08 10° SW
CZ-4B R/B 4.0 17:48:36 10° N 17:51:05 20° NW 17:53:31 10° WSW
Resurs 1-3 3.8 17:53:16 64° N 17:53:16 64° N 17:57:06 10° NNW
Terra 3.5 17:55:15 21° NNE 17:55:15 21° NNE 17:57:52 10° N
Cosmos 1898 Rocket 3.4 17:49:41 10° NW 17:55:02 71° NE 17:55:18 69° ENE
Cosmos 1315 Rocket 3.7 17:51:14 10° SSW 18:00:22 - NNE 17:54:02 42° SW
SL-08 RB Rocket 4.4 17:54:21 30° SSW 17:56:17 52° W 18:00:45 10° NNW
Cosmos 2369 Rocket 3.4 17:52:21 10° WNW 17:57:38 37° N 18:00:06 26° NE
Cosmos 1980 Rocket 4.3 17:52:50 10° S 17:53:26 13° S 17:53:26 13° S
Cosmos 1610 Rocket 4.4 17:53:07 10° NNW 17:59:30 69° ENE 18:00:33 59° ESE
Genesis I 4.1 17:58:18 10° WNW 18:01:14 48° NW 18:01:14 48° NW
MetOp-A 4.3 18:01:11 40° S 18:03:06 69° WSW 18:08:29 10° NNW
SPOT 3 Rocket 3.4 18:03:03 79° ESE 18:03:16 82° ENE 18:08:33 10° NNW
NOSS 2-1 (E) 3.9 18:03:28 10° W 18:06:40 61° WNW 18:06:40 61° WNW
Cosmos 1295 Rocket 4.3 18:03:41 10° NNW 18:09:49 67° ENE 18:09:59 67° E
Cosmos 2184 Rocket 4.0 18:04:58 10° NNW 18:11:19 83° WSW 18:13:20 47° S
Cosmos 1441 Rocket 4.5 18:10:20 10° NNW 18:13:37 39° W 18:13:37 39° W
CZ-4C R/B 3.2 18:08:21 10° WNW 18:14:50 57° SW 18:17:00 43° S
COSMOS 2455 2.7 18:09:19 10° WNW 18:15:25 80° NNE 18:15:51 75° E
SPOT 5 4.3 18:19:02 28° NNE 18:19:02 28° NNE 18:21:41 10° N
Cosmos 1455 4.2 18:15:28 10° SW 18:22:38 10° N 18:22:43 10° N
SJ 16-02 2.0 18:15:15 10° NW 18:18:55 55° WNW 18:18:55 55° WNW
Spot 2 Rocket 4.1 18:21:59 46° NNE 18:21:59 46° NNE 18:25:52 10° NNW
COSMO-SKYMED 1 4.5 18:17:23 10° N 18:21:11 30° NW 18:24:58 10° WSW
Cosmos 1992 Rocket 4.0 18:17:48 10° SW 18:22:43 75° W 18:22:43 75° W
Meteor 2-10 Rocket 4.4 18:20:08 10° SW 18:25:08 47° WNW 18:30:02 10° NNE
Cosmos 1125 Rocket 4.5 18:22:42 10° NW 18:26:56 37° NNE 18:26:56 37° NNE
Cosmos 1943 Rocket 3.3 18:22:40 10° WNW 18:27:42 34° N 18:28:36 32° NNE
Cosmos 2074 Rocket 4.2 18:24:10 10° NNW 18:30:20 66° W 18:32:12 45° SSW
Ariane Rocket 4.0 18:30:46 33° SW 18:32:22 42° W 18:37:14 10° NNW
Cosmos 2327 Rocket 4.4 18:27:53 10° NNW 18:34:04 82° W 18:34:32 75° SSW
Cosmos 44 4.0 18:31:59 10° WSW 18:35:30 49° W 18:35:30 49° W
ATLAS 5 CENTAUR R/B 2.3 18:32:11 10° WNW 18:36:16 64° WNW 18:36:16 64° WNW
CZ-2C R/B 3.3 18:33:06 10° NNE 18:37:01 47° NNE 18:37:01 47° NNE
H-2A R/B 4.3 18:34:29 10° SW 18:38:47 23° W 18:43:07 10° NNW
Cosmos 990 Rocket 4.3 18:34:27 10° NW 18:39:09 63° W 18:39:09 63° W
Cosmos 2278 Rocket 2.7 18:34:14 10° NW 18:39:18 51° NNE 18:39:18 51° NNE
Cosmos 2341 Rocket 4.0 18:34:02 10° NNW 18:39:41 68° NNE 18:39:41 68° NNE
RESURS DK-1 4.0 18:36:58 10° NW 18:39:20 33° NW 18:39:20 33° NW
Resurs 01 Rocket 3.0 18:48:03 37° NW 18:48:03 37° NW 18:50:52 10° NNW
Cosmos 2218 Rocket 4.4 18:41:16 10° NNW 18:46:31 53° NNE 18:46:31 53° NNE
Cosmos 2315 Rocket 4.4 18:41:36 10° SSW 18:47:44 60° WNW 18:53:54 10° NNE
OBJECT-B 4.0 18:51:18 14° NW 18:51:18 14° NW 18:51:52 10° NNW
Cosmos 1844 Rocket 3.0 18:43:22 10° NW 18:48:28 65° W 18:48:28 65° W
Cosmos 1656 4.1 18:44:16 10° WSW 18:49:50 60° NW 18:50:25 57° N
ARIANE 5 R/B 4.2 18:54:18 32° NNW 18:54:18 32° NNW 18:56:43 10° NNW
USA 215 4.3 18:54:35 31° SSW 18:55:01 31° SW 19:00:45 10° W
SPOT 1/Viking Rocket 4.4 18:58:52 45° NNW 18:58:52 45° NNW 19:02:27 10° NNW
SL-8 Rocket 4.2 18:52:05 10° NNW 18:57:08 59° N 18:57:08 59° N
Cosmos 2263 Rocket 4.0 18:55:00 10° NW 18:59:30 25° WSW 19:01:10 21° SW
Cosmos 1937 Rocket 4.3 18:57:23 10° NW 19:01:12 48° WNW 19:01:12 48° WNW
Cosmos 1844 4.2 18:58:20 10° NW 19:02:50 54° WNW 19:02:50 54° WNW
ATLAS 2AS CENTAUR R/B 4.3 19:01:10 10° WNW 19:07:11 26° WSW 19:09:28 22° SW
Cosmos 2154 Rocket 4.5 19:06:27 10° NNW 19:12:29 54° W 19:12:51 54° WSW
Lacrosse 5 4.0 19:09:23 10° W 19:11:26 19° WSW 19:11:26 19° WSW
ERS-1 Rocket 4.4 19:18:49 34° NNW 19:18:49 34° NNW 19:21:40 10° NNW
Cosmos 1697 Rocket 3.9 19:13:21 10° WSW 19:16:32 34° WSW 19:16:32 34° WSW
Terra 3.8 19:34:08 25° NNW 19:34:08 25° NNW 19:36:06 10° NNW
Cosmos 2369 Rocket 3.5 19:37:34 10° NW 19:41:52 36° N 19:41:52 36° N
SJ 16-02 4.2 19:54:49 10° WNW 19:55:54 13° WNW 19:55:54 13° WNW
COSMOS 2455 4.2 19:55:26 10° NW 19:58:59 32° W 19:58:59 32° W
CZ-4C R/B 4.3 19:57:04 10° WNW 20:02:11 25° WSW 20:02:11 25° WSW
Cosmos 1943 Rocket 3.8 20:07:10 10° NW 20:10:06 30° NNW 20:10:06 30° NNW
CZ-2C R/B 4.4 20:13:45 10° NNE 20:18:30 30° NW 20:18:30 30° NW
ATLAS 5 CENTAUR R/B 4.4 20:16:39 10° WNW 20:17:47 17° WNW 20:17:47 17° WNW
Cosmos 2278 Rocket 3.9 20:18:31 10° NW 20:21:08 28° NW 20:21:08 28° NW
SL-16 R/B 4.3 20:37:22 22° NNE 20:37:22 22° NNE 20:41:57 10° NNW
Cosmos 2369 Rocket 4.4 21:22:02 10° NW 21:23:39 20° NW 21:23:39 20° NW
SL-16 R/B 4.1 22:22:28 31° N 22:22:28 31° N 22:25:47 10° NNW
SL-16 R/B 4.5 22:39:46 18° NE 22:39:46 18° NE 22:41:23 10° NE
Cosmos 2333 Rocket 4.3 22:51:01 21° NE 22:51:01 21° NE 22:52:54 10° NE
Cosmos 2237 Rocket 4.4 22:56:09 21° NE 22:56:09 21° NE 22:57:52 10° NE
Cosmos 2360 Rocket 4.3 23:02:17 23° NE 23:02:17 23° NE 23:04:33 10° NE
Resurs 1-4 Rocket 4.4 23:01:51 10° NNE 23:03:49 19° NE 23:03:49 19° NE
SL-16 R/B 4.1 23:23:09 25° NE 23:23:09 25° NE 23:25:23 10° NE
Cosmos 2219 Rocket 4.0 23:27:26 27° NNE 23:27:26 27° NNE 23:30:13 10° NE
CZ-2D R/B 4.2 23:23:50 10° NNE 23:26:01 22° NE 23:26:01 22° NE
Cosmos 2322 Rocket 3.8 23:45:31 31° NNE 23:45:31 31° NNE 23:49:22 10° ENE
